Overview Statistics Trail Chart Weather Telemetry Raw packets
 

This is the latest recevied weather packets stored in our database for station/object W0AKY-13. If no packets are shown the sender has not sent any weather packets the latest 10 day(s).

<< 77 78 79 80 81 82 83 >>
Time Temp. Humidity Pressure Rain* Wind** Luminosity Snow
1787962304 27.78° C 67% 1018.1 hPa 0 mm - 19 W/m² -
1787961999 27.78° C 67% 1018.6 hPa 0 mm - 21 W/m² -
1787961693 27.78° C 67% 1018.4 hPa 0 mm - 22 W/m² -
1787961393 27.78° C 66% 1018.7 hPa 0 mm - 23 W/m² -
1787961092 28.33° C 65% 1018.8 hPa 0 mm - 24 W/m² -
1787960791 28.33° C 64% 1018.7 hPa 0 mm - 26 W/m² -
1787960486 28.33° C 64% 1019 hPa 0 mm - 27 W/m² -
1787960186 28.89° C 62% 1018.8 hPa 0 mm - 29 W/m² -
1787959880 28.89° C 62% 1018.7 hPa 0 mm - 31 W/m² -
1787959575 28.89° C 61% 1018.7 hPa 0 mm - 32 W/m² -
1787959270 28.89° C 63% 1018.8 hPa 0 mm - 36 W/m² -
1787958969 29.44° C 62% 1018.7 hPa 0 mm - 36 W/m² -
1787958665 29.44° C 61% 1019 hPa 0 mm - 40 W/m² -
1787958360 30° C 59% 1019 hPa 0 mm - 47 W/m² -
1787958056 30° C 59% 1018.8 hPa 0 mm - 43 W/m² -
1787957754 30.56° C 58% 1018.7 hPa 0 mm - 125 W/m² -
1787957450 30.56° C 56% 1018.7 hPa 0 mm - 88 W/m² -
1787957158 31.11° C 55% 1018.7 hPa 0 mm - 183 W/m² -
1787956849 30.56° C 56% 1019 hPa 0 mm - 195 W/m² -
1787956544 31.11° C 55% 1019 hPa 0 mm - 206 W/m² -
1787956240 31.67° C 56% 1019 hPa 0 mm - 212 W/m² -
1787955940 31.11° C 57% 1019 hPa 0 mm - 224 W/m² -
1787955636 31.11° C 55% 1018.9 hPa 0 mm - 235 W/m² -
1787955331 31.11° C 53% 1019.2 hPa 0 mm - 247 W/m² -
1787955030 31.11° C 54% 1019.2 hPa 0 mm - 261 W/m² -

* Rain latest hour (hover to see other rain measurements)
** Current wind speed in m/s (hover to see current wind gust speed)